Location: Alpine Heights
(32.8181°N, 116.7809°W)
Time: 23:16:07
(UTC+00:00)

BREEZE-M DEB (TANK) - Pass Details

Date: 14 April 2021
Orbit: 335 x 12027 km, 49.6° (Epoch: 12 May)

Event Time Altitude Azimuth Distance (km) Brightness Sun altitude
Exits shadow 12:20:40 13° 220° (SW) 1,997 4.4 -12.5°
Maximum altitude 12:24:47 79° 133° (SE) 1,242 3.9 -11.6°
Drops below altitude 10° 12:40:55 10° 50° (NE) 7,063 9.0 -8.4°
Sets 12:50:43 0° 51° (NE) 10,153 10.0 -6.4°
